Home   Weather   Windsor   Past weeks

Flag for Canada Past Weather in Windsor, Ontario, Canada — Yesterday and Last 2 Weeks

Now
52 °F

Sprinkles. Fog.


Feels Like: 50 °F
Forecast: 49 / 64 °F
Wind: 6 mph from East

Location: Windsor Weather Station

Current Time: Apr 30, 2017 at 8:23:49 pm

Latest Report: Apr 30, 2017 at 8:00 pm


Visibility: 4 mi

Pressure: 29.83 "Hg

Humidity: 100%

Dew Point: 52 °F

Location of WindsorLocation

Past Weather in Windsor — Graph

°F

Windsor Temperature Yesterday

Maximum temperature yesterday: 55 °F (at 1:00 am)
Minimum temperature yesterday: 43 °F (at 9:00 pm)
Average temperature yesterday: 47 °F

High & Low Weather Summary for the Past Weeks

 TemperatureHumidityPressure
High81 °F (Apr 15, 6:00 pm)100% (Apr 17, 7:00 am)30.35 "Hg (Apr 17, 7:00 am)
Low34 °F (Apr 23, 5:00 am)30% (Apr 23, 3:00 pm)29.49 "Hg (Apr 27, 12:00 pm)
Average55 °F73%29.96 "Hg
* Reported Apr 15 6:00 pm — Apr 30 6:00 pm, Windsor, Weather by CustomWeather, © 2017

Note: Actual official high and low records may vary slightly from our data, if they occured in-between our weather recording intervals... More about our weather records

Advertising

Windsor Weather History for the Previous 24 Hours

Scroll right to see more
 ConditionsComfort  
Time TempWeatherWind HumidityBarometerVisibility
6:00 pm
Sun, Apr 30
54 °FSprinkles. Mostly cloudy.7 mph94%29.85 "Hg7 mi
5:00 pm55 °FMostly cloudy.8 mph88%29.85 "Hg7 mi
4:40 pm55 °FMore clouds than sun.9 mph82%29.87 "Hg7 mi
4:19 pm55 °FSprinkles. More clouds than sun.9 mph88%29.87 "Hg7 mi
4:00 pm55 °FMore clouds than sun.13 mph82%29.88 "Hg10 mi
3:00 pm54 °FMore clouds than sun.9 mph94%29.90 "Hg10 mi
2:43 pm54 °FCloudy.9 mph88%29.91 "Hg10 mi
2:00 pm50 °FLight rain. Fog.10 mph94%29.93 "Hg6 mi
1:42 pm50 °FLight rain. Fog.9 mph94%29.94 "Hg4 mi
1:16 pm50 °FLight rain. Overcast.13 mph88%29.94 "Hg10 mi
1:00 pm50 °FOvercast.14 mph82%29.95 "Hg15 mi
12:00 pm50 °FOvercast.15 mph82%29.97 "Hg15 mi
11:00 am48 °FOvercast.13 mph87%30.00 "Hg15 mi
10:00 am48 °FOvercast.13 mph82%30.02 "Hg15 mi
9:00 am46 °FOvercast.15 mph82%30.04 "Hg15 mi
8:00 am45 °FOvercast.13 mph87%30.05 "Hg15 mi
7:00 am45 °FMostly cloudy.16 mph81%30.04 "Hg12 mi
6:00 am45 °FOvercast.14 mph87%30.07 "Hg12 mi
5:00 am45 °FOvercast.12 mph93%30.05 "Hg15 mi
4:00 am45 °FMostly cloudy.17 mph93%30.09 "Hg12 mi
3:23 am45 °FSprinkles. Overcast.12 mph87%30.14 "Hg6 mi
3:00 am45 °FThunderstorms. Mostly cloudy.13 mph93%30.12 "Hg4 mi
2:20 am45 °FSprinkles. Mostly cloudy.14 mph87%30.08 "Hg12 mi
2:00 am45 °FThunderstorms. Mostly cloudy.13 mph87%30.12 "Hg9 mi
1:39 am43 °FThunderstorms. Mostly cloudy.14 mph93%30.12 "Hg5 mi
1:27 am43 °FStrong thunderstorms. Overcast.17 mph87%30.14 "Hg4 mi
1:20 am43 °FThunderstorms. Mostly cloudy.17 mph87%30.13 "Hg8 mi
1:00 am45 °FSprinkles. Mostly cloudy.15 mph76%30.14 "Hg10 mi
12:00 am43 °FOvercast.24 mph71%30.15 "Hg15 mi
11:00 pm
Sat, Apr 29
43 °FOvercast.18 mph71%30.23 "Hg15 mi
10:00 pm43 °FMostly cloudy.16 mph71%30.25 "Hg15 mi
9:00 pm43 °FMostly cloudy.17 mph71%30.24 "Hg15 mi
8:00 pm45 °FOvercast.16 mph66%30.22 "Hg15 mi
Weather by CustomWeather, © 2017

See weather overviewHow to use our weather pages